| time (UTC) | temp F | wind direction | speed MPH | gust MPH | rain 1hr in | rain 24hr in | rain mn in | humidity % | barometer mb |
| 20260509215059 | 52 | 17 | 1.0 | 3.0 | 0.00 | 0.00 | 0.00 | 81 | 1016.3 |
| 20260509214553 | 53 | 20 | 1.0 | 3.0 | 0.00 | 0.00 | 0.00 | 80 | 1016.3 |
| 20260509214036 | 53 | 355 | 1.0 | 2.0 | 0.00 | 0.00 | 0.00 | 80 | 1016.4 |
| 20260509213605 | 53 | 317 | 1.0 | 2.0 | 0.00 | 0.00 | 0.00 | 80 | 1016.4 |
| 20260509213029 | 53 | 350 | 1.0 | 4.0 | 0.00 | 0.00 | 0.00 | 80 | 1016.4 |
| 20260509212625 | 53 | 9 | 1.0 | 4.0 | 0.00 | 0.00 | 0.00 | 79 | 1016.5 |
| 20260509212052 | 54 | 346 | 2.0 | 4.0 | 0.00 | 0.00 | 0.00 | 78 | 1016.5 |
| 20260509211530 | 54 | 19 | 2.0 | 4.0 | 0.00 | 0.00 | 0.00 | 77 | 1016.5 |
| 20260509211029 | 54 | 9 | 1.0 | 5.0 | 0.00 | 0.00 | 0.00 | 77 | 1016.5 |
| 20260509210550 | 54 | 16 | 2.0 | 7.0 | 0.00 | 0.00 | 0.00 | 76 | 1016.4 |
| 20260509210046 | 54 | 9 | 2.0 | 9.0 | 0.00 | 0.00 | 0.00 | 76 | 1016.4 |
| 20260509205611 | 54 | 36 | 3.0 | 6.0 | 0.00 | 0.00 | 0.00 | 76 | 1016.3 |
| 20260509205039 | 54 | 19 | 1.0 | 4.0 | 0.00 | 0.00 | 0.00 | 76 | 1016.4 |
| 20260509204539 | 54 | 9 | 2.0 | 4.0 | 0.00 | 0.00 | 0.00 | 76 | 1016.3 |
| 20260509204045 | 55 | 28 | 1.0 | 4.0 | 0.00 | 0.00 | 0.00 | 75 | 1016.4 |
| 20260509203552 | 55 | 28 | 1.0 | 6.0 | 0.00 | 0.00 | 0.00 | 75 | 1016.3 |
| 20260509203026 | 55 | 22 | 2.0 | 6.0 | 0.00 | 0.00 | 0.00 | 74 | 1016.3 |
| 20260509202531 | 55 | 9 | 2.0 | 4.0 | 0.00 | 0.00 | 0.00 | 73 | 1016.3 |
| 20260509202101 | 56 | 5 | 2.0 | 4.0 | 0.00 | 0.00 | 0.00 | 72 | 1016.4 |
| 20260509201555 | 56 | 360 | 2.0 | 5.0 | 0.00 | 0.00 | 0.00 | 71 | 1016.4 |
| 20260509201037 | 56 | 355 | 2.0 | 5.0 | 0.00 | 0.00 | 0.00 | 71 | 1016.5 |
| 20260509200551 | 56 | 20 | 1.0 | 4.0 | 0.00 | 0.00 | 0.00 | 71 | 1016.5 |
| 20260509200036 | 56 | 14 | 1.0 | 4.0 | 0.00 | 0.00 | 0.00 | 71 | 1016.5 |
| 20260509195556 | 56 | 42 | 0.0 | 4.0 | 0.00 | 0.00 | 0.00 | 70 | 1016.4 |
| 20260509195026 | 56 | 30 | 1.0 | 4.0 | 0.00 | 0.00 | 0.00 | 69 | 1016.4 |
| 20260509194546 | 57 | 360 | 0.0 | 3.0 | 0.00 | 0.00 | 0.00 | 69 | 1016.4 |
| 20260509194035 | 57 | 32 | 1.0 | 4.0 | 0.00 | 0.00 | 0.00 | 67 | 1016.4 |
| 20260509193555 | 57 | 26 | 2.0 | 4.0 | 0.00 | 0.00 | 0.00 | 67 | 1016.3 |
| 20260509193059 | 57 | 64 | 2.0 | 4.0 | 0.00 | 0.00 | 0.00 | 67 | 1016.3 |
| 20260509192556 | 58 | 27 | 1.0 | 5.0 | 0.00 | 0.00 | 0.00 | 67 | 1016.2 |
| 20260509192041 | 58 | 53 | 1.0 | 5.0 | 0.00 | 0.00 | 0.00 | 66 | 1016.2 |
| 20260509191552 | 58 | 64 | 2.0 | 5.0 | 0.00 | 0.00 | 0.00 | 65 | 1016.1 |
| 20260509191056 | 59 | 35 | 2.0 | 4.0 | 0.00 | 0.00 | 0.00 | 65 | 1016.0 |
| 20260509190533 | 59 | 24 | 2.0 | 6.0 | 0.00 | 0.00 | 0.00 | 64 | 1016.0 |
| 20260509190057 | 59 | 50 | 1.0 | 4.0 | 0.00 | 0.00 | 0.00 | 64 | 1016.0 |
| 20260509185543 | 59 | 42 | 1.0 | 4.0 | 0.00 | 0.00 | 0.00 | 63 | 1016.0 |
| 20260509185030 | 60 | 13 | 2.0 | 7.0 | 0.00 | 0.00 | 0.00 | 62 | 1016.0 |
| 20260509184552 | 60 | 34 | 2.0 | 7.0 | 0.00 | 0.00 | 0.00 | 61 | 1015.8 |
| 20260509184037 | 60 | 360 | 3.0 | 6.0 | 0.00 | 0.00 | 0.00 | 61 | 1015.9 |
| 20260509183544 | 60 | 27 | 2.0 | 6.0 | 0.00 | 0.00 | 0.00 | 60 | 1015.9 |
| 20260509183028 | 61 | 15 | 3.0 | 6.0 | 0.00 | 0.00 | 0.00 | 60 | 1015.8 |
| 20260509182533 | 61 | 30 | 1.0 | 5.0 | 0.00 | 0.00 | 0.00 | 60 | 1015.9 |
| 20260509182032 | 61 | 44 | 1.0 | 8.0 | 0.00 | 0.00 | 0.00 | 60 | 1015.7 |
| 20260509181532 | 61 | 55 | 3.0 | 8.0 | 0.00 | 0.00 | 0.00 | 60 | 1015.8 |
| 20260509181105 | 61 | 11 | 3.0 | 6.0 | 0.00 | 0.00 | 0.00 | 59 | 1015.7 |
| 20260509180542 | 62 | 42 | 2.0 | 8.0 | 0.00 | 0.00 | 0.00 | 58 | 1015.6 |
| 20260509180025 | 62 | 355 | 3.0 | 5.0 | 0.00 | 0.00 | 0.00 | 58 | 1015.6 |
| 20260509175540 | 62 | 47 | 2.0 | 7.0 | 0.00 | 0.00 | 0.00 | 58 | 1015.7 |
| 20260509175029 | 62 | 339 | 3.0 | 8.0 | 0.00 | 0.00 | 0.00 | 57 | 1015.7 |
| 20260509174531 | 62 | 355 | 4.0 | 8.0 | 0.00 | 0.00 | 0.00 | 56 | 1015.8 |
| 20260509174030 | 62 | 29 | 3.0 | 7.0 | 0.00 | 0.00 | 0.00 | 55 | 1015.8 |
| 20260509173554 | 62 | 355 | 2.0 | 5.0 | 0.00 | 0.00 | 0.00 | 54 | 1015.9 |
| 20260509173038 | 63 | 19 | 3.0 | 6.0 | 0.00 | 0.00 | 0.00 | 53 | 1015.9 |
| 20260509172609 | 63 | 26 | 2.0 | 6.0 | 0.00 | 0.00 | 0.00 | 54 | 1016.0 |
| 20260509172037 | 63 | 332 | 3.0 | 6.0 | 0.00 | 0.00 | 0.00 | 54 | 1016.0 |
| 20260509171602 | 63 | 342 | 2.0 | 5.0 | 0.00 | 0.00 | 0.00 | 54 | 1016.0 |
| 20260509171044 | 63 | 325 | 3.0 | 6.0 | 0.00 | 0.00 | 0.00 | 54 | 1015.9 |
| 20260509170607 | 63 | 22 | 1.0 | 6.0 | 0.00 | 0.00 | 0.00 | 54 | 1015.9 |
| 20260509170038 | 63 | 15 | 2.0 | 8.0 | 0.00 | 0.00 | 0.00 | 53 | 1016.0 |
| 20260509165555 | 64 | 32 | 2.0 | 8.0 | 0.00 | 0.00 | 0.00 | 53 | 1016.0 |
| 20260509165036 | 64 | 350 | 3.0 | 8.0 | 0.00 | 0.00 | 0.00 | 51 | 1015.9 |
| 20260509164533 | 64 | 16 | 3.0 | 6.0 | 0.00 | 0.00 | 0.00 | 52 | 1015.9 |
| 20260509164056 | 64 | 290 | 2.0 | 6.0 | 0.00 | 0.00 | 0.00 | 52 | 1016.0 |
| 20260509163556 | 64 | 26 | 2.0 | 6.0 | 0.00 | 0.00 | 0.00 | 52 | 1016.0 |
| 20260509163049 | 65 | 331 | 3.0 | 7.0 | 0.00 | 0.00 | 0.00 | 51 | 1015.9 |
| 20260509162614 | 65 | 348 | 3.0 | 7.0 | 0.00 | 0.00 | 0.00 | 51 | 1015.9 |
| 20260509162050 | 65 | 5 | 1.0 | 7.0 | 0.00 | 0.00 | 0.00 | 50 | 1015.9 |
| 20260509161535 | 65 | 360 | 2.0 | 9.0 | 0.00 | 0.00 | 0.00 | 51 | 1015.9 |
| 20260509161052 | 65 | 22 | 4.0 | 9.0 | 0.00 | 0.00 | 0.00 | 53 | 1015.9 |
| 20260509160542 | 65 | 57 | 2.0 | 9.0 | 0.00 | 0.00 | 0.00 | 51 | 1016.0 |
| 20260509160052 | 64 | 34 | 3.0 | 9.0 | 0.00 | 0.00 | 0.00 | 52 | 1015.9 |
| 20260509155539 | 64 | 350 | 4.0 | 8.0 | 0.00 | 0.00 | 0.00 | 50 | 1015.9 |
| 20260509155026 | 65 | 34 | 3.0 | 6.0 | 0.00 | 0.00 | 0.00 | 52 | 1015.9 |
| 20260509154550 | 65 | 18 | 2.0 | 6.0 | 0.00 | 0.00 | 0.00 | 49 | 1015.8 |
| 20260509154037 | 65 | 351 | 3.0 | 6.0 | 0.00 | 0.00 | 0.00 | 50 | 1015.8 |
| 20260509153547 | 65 | 88 | 2.0 | 8.0 | 0.00 | 0.00 | 0.00 | 51 | 1015.9 |
| 20260509153028 | 65 | 351 | 2.0 | 9.0 | 0.00 | 0.00 | 0.00 | 49 | 1015.9 |
| 20260509152542 | 65 | 11 | 1.0 | 9.0 | 0.00 | 0.00 | 0.00 | 52 | 1015.9 |
| 20260509152028 | 65 | 304 | 2.0 | 4.0 | 0.00 | 0.00 | 0.00 | 51 | 1016.0 |
| 20260509151537 | 65 | 290 | 2.0 | 6.0 | 0.00 | 0.00 | 0.00 | 50 | 1016.1 |
| 20260509151038 | 66 | 331 | 2.0 | 6.0 | 0.00 | 0.00 | 0.00 | 48 | 1016.1 |
| 20260509150548 | 67 | 342 | 2.0 | 8.0 | 0.00 | 0.00 | 0.00 | 46 | 1016.1 |
| 20260509150043 | 67 | 23 | 4.0 | 8.0 | 0.00 | 0.00 | 0.00 | 47 | 1016.1 |
| 20260509145557 | 67 | 62 | 3.0 | 8.0 | 0.00 | 0.00 | 0.00 | 48 | 1016.2 |
| 20260509145046 | 67 | 360 | 3.0 | 9.0 | 0.00 | 0.00 | 0.00 | 47 | 1016.1 |
| 20260509144552 | 67 | 323 | 2.0 | 9.0 | 0.00 | 0.00 | 0.00 | 47 | 1016.1 |
| 20260509144039 | 67 | 346 | 3.0 | 9.0 | 0.00 | 0.00 | 0.00 | 47 | 1016.0 |
| 20260509143543 | 67 | 51 | 2.0 | 10.0 | 0.00 | 0.00 | 0.00 | 47 | 1016.1 |
| 20260509143051 | 67 | 309 | 5.0 | 10.0 | 0.00 | 0.00 | 0.00 | 46 | 1016.2 |
| 20260509142557 | 67 | 343 | 3.0 | 8.0 | 0.00 | 0.00 | 0.00 | 45 | 1016.2 |
| 20260509142036 | 67 | 337 | 3.0 | 10.0 | 0.00 | 0.00 | 0.00 | 46 | 1016.2 |
| 20260509141535 | 68 | 18 | 4.0 | 10.0 | 0.00 | 0.00 | 0.00 | 45 | 1016.3 |
| 20260509141036 | 69 | 41 | 3.0 | 12.0 | 0.00 | 0.00 | 0.00 | 47 | 1016.4 |
| 20260509140541 | 68 | 41 | 7.0 | 12.0 | 0.00 | 0.00 | 0.00 | 47 | 1016.4 |
| 20260509140057 | 69 | 286 | 5.0 | 9.0 | 0.00 | 0.00 | 0.00 | 46 | 1016.4 |
| 20260509135544 | 68 | 355 | 4.0 | 8.0 | 0.00 | 0.00 | 0.00 | 45 | 1016.5 |
| 20260509135043 | 68 | 33 | 1.0 | 8.0 | 0.00 | 0.00 | 0.00 | 44 | 1016.5 |
| 20260509134547 | 68 | 60 | 2.0 | 8.0 | 0.00 | 0.00 | 0.00 | 42 | 1016.6 |
| 20260509134039 | 66 | 78 | 3.0 | 6.0 | 0.00 | 0.00 | 0.00 | 47 | 1016.6 |
| 20260509133553 | 66 | 202 | 1.0 | 5.0 | 0.00 | 0.00 | 0.00 | 46 | 1016.8 |
| 20260509133029 | 66 | 300 | 0.0 | 5.0 | 0.00 | 0.00 | 0.00 | 45 | 1016.8 |
| 20260509132540 | 67 | 5 | 3.0 | 5.0 | 0.00 | 0.00 | 0.00 | 46 | 1016.9 |
| 20260509132029 | 68 | 355 | 1.0 | 6.0 | 0.00 | 0.00 | 0.00 | 45 | 1016.9 |
| 20260509131603 | 69 | 341 | 2.0 | 6.0 | 0.00 | 0.00 | 0.00 | 43 | 1017.0 |
| 20260509131042 | 67 | 24 | 2.0 | 6.0 | 0.00 | 0.00 | 0.00 | 43 | 1017.0 |
| 20260509130546 | 67 | 5 | 2.0 | 7.0 | 0.00 | 0.00 | 0.00 | 43 | 1017.0 |
| 20260509130049 | 68 | 96 | 3.0 | 7.0 | 0.00 | 0.00 | 0.00 | 45 | 1017.1 |
| 20260509125603 | 69 | 44 | 2.0 | 6.0 | 0.00 | 0.00 | 0.00 | 47 | 1017.1 |
| 20260509125056 | 68 | 39 | 3.0 | 8.0 | 0.00 | 0.00 | 0.00 | 45 | 1017.2 |
| 20260509124538 | 69 | 76 | 3.0 | 8.0 | 0.00 | 0.00 | 0.00 | 44 | 1017.1 |
| 20260509124031 | 67 | 88 | 1.0 | 4.0 | 0.00 | 0.00 | 0.00 | 44 | 1017.1 |
| 20260509123553 | 67 | 355 | 1.0 | 4.0 | 0.00 | 0.00 | 0.00 | 47 | 1017.2 |
| 20260509123038 | 66 | 41 | 1.0 | 5.0 | 0.00 | 0.00 | 0.00 | 47 | 1017.2 |
| 20260509122545 | 67 | 348 | 3.0 | 5.0 | 0.00 | 0.00 | 0.00 | 48 | 1017.2 |
| 20260509122107 | 65 | 331 | 0.0 | 5.0 | 0.00 | 0.00 | 0.00 | 47 | 1017.3 |
| 20260509121540 | 66 | 63 | 2.0 | 5.0 | 0.00 | 0.00 | 0.00 | 46 | 1017.3 |
| 20260509121055 | 66 | 37 | 2.0 | 5.0 | 0.00 | 0.00 | 0.00 | 47 | 1017.4 |
| 20260509120543 | 66 | 14 | 1.0 | 5.0 | 0.00 | 0.00 | 0.00 | 46 | 1017.5 |
| 20260509120047 | 68 | 82 | 3.0 | 5.0 | 0.00 | 0.00 | 0.00 | 46 | 1017.5 |
| 20260509115548 | 69 | 76 | 1.0 | 8.0 | 0.00 | 0.00 | 0.00 | 45 | 1017.5 |
| 20260509115043 | 70 | 103 | 3.0 | 8.0 | 0.00 | 0.00 | 0.00 | 46 | 1017.5 |
| 20260509114533 | 71 | 169 | 1.0 | 6.0 | 0.00 | 0.00 | 0.00 | 46 | 1017.6 |
| 20260509114041 | 71 | 126 | 3.0 | 8.0 | 0.00 | 0.00 | 0.00 | 43 | 1017.6 |
| 20260509113531 | 70 | 55 | 3.0 | 8.0 | 0.00 | 0.00 | 0.00 | 45 | 1017.6 |
| 20260509113037 | 68 | 82 | 3.0 | 6.0 | 0.00 | 0.00 | 0.00 | 49 | 1017.7 |
| 20260509112600 | 69 | 103 | 3.0 | 7.0 | 0.00 | 0.00 | 0.00 | 49 | 1017.7 |
| 20260509112040 | 69 | 96 | 2.0 | 7.0 | 0.00 | 0.00 | 0.00 | 44 | 1017.7 |
| 20260509111551 | 68 | 16 | 3.0 | 7.0 | 0.00 | 0.00 | 0.00 | 47 | 1017.8 |
| 20260509111045 | 68 | 42 | 2.0 | 7.0 | 0.00 | 0.00 | 0.00 | 47 | 1017.9 |
| 20260509110540 | 69 | 96 | 2.0 | 7.0 | 0.00 | 0.00 | 0.00 | 49 | 1017.9 |
| 20260509110041 | 70 | 69 | 4.0 | 7.0 | 0.00 | 0.00 | 0.00 | 48 | 1018.0 |
| 20260509105606 | 69 | 91 | 2.0 | 6.0 | 0.00 | 0.00 | 0.00 | 48 | 1018.0 |
| 20260509105025 | 67 | 20 | 2.0 | 5.0 | 0.00 | 0.00 | 0.00 | 53 | 1018.1 |
| 20260509104538 | 68 | 189 | 2.0 | 4.0 | 0.00 | 0.00 | 0.00 | 50 | 1018.1 |
| 20260509104046 | 67 | 22 | 3.0 | 7.0 | 0.00 | 0.00 | 0.00 | 53 | 1018.2 |
| 20260509103604 | 67 | 84 | 3.0 | 7.0 | 0.00 | 0.00 | 0.00 | 55 | 1018.2 |
| 20260509103027 | 68 | 13 | 3.0 | 7.0 | 0.00 | 0.00 | 0.00 | 54 | 1018.2 |
| 20260509102549 | 68 | 107 | 2.0 | 5.0 | 0.00 | 0.00 | 0.00 | 55 | 1018.2 |
| 20260509102037 | 66 | 42 | 2.0 | 5.0 | 0.00 | 0.00 | 0.00 | 58 | 1018.3 |
| 20260509101542 | 65 | 171 | 3.0 | 5.0 | 0.00 | 0.00 | 0.00 | 54 | 1018.4 |
| 20260509101059 | 66 | 98 | 1.0 | 3.0 | 0.00 | 0.00 | 0.00 | 53 | 1018.3 |
| 20260509100543 | 65 | 111 | 2.0 | 5.0 | 0.00 | 0.00 | 0.00 | 54 | 1018.3 |
| 20260509100036 | 66 | 145 | 2.0 | 5.0 | 0.00 | 0.00 | 0.00 | 53 | 1018.4 |
| 20260509095602 | 65 | 34 | 2.0 | 5.0 | 0.00 | 0.00 | 0.00 | 55 | 1018.4 |
| 20260509095044 | 65 | 187 | 1.0 | 9.0 | 0.00 | 0.00 | 0.00 | 54 | 1018.4 |
| 20260509094542 | 65 | 62 | 2.0 | 7.0 | 0.00 | 0.00 | 0.00 | 55 | 1018.5 |
| 20260509094042 | 65 | 94 | 3.0 | 6.0 | 0.00 | 0.00 | 0.00 | 59 | 1018.4 |
| 20260509093539 | 65 | 17 | 2.0 | 6.0 | 0.00 | 0.00 | 0.00 | 56 | 1018.4 |
| 20260509093036 | 64 | 309 | 2.0 | 5.0 | 0.00 | 0.00 | 0.00 | 60 | 1018.4 |
| 20260509092546 | 63 | 104 | 1.0 | 3.0 | 0.00 | 0.00 | 0.00 | 60 | 1018.5 |
| 20260509092029 | 62 | 59 | 1.0 | 3.0 | 0.00 | 0.00 | 0.00 | 60 | 1018.5 |
| 20260509091544 | 63 | 99 | 1.0 | 5.0 | 0.00 | 0.00 | 0.00 | 62 | 1018.6 |
| 20260509091034 | 63 | 18 | 2.0 | 5.0 | 0.00 | 0.00 | 0.00 | 63 | 1018.6 |
| 20260509090557 | 61 | 160 | 1.0 | 5.0 | 0.00 | 0.00 | 0.00 | 63 | 1018.6 |
| 20260509090050 | 62 | 97 | 2.0 | 5.0 | 0.00 | 0.00 | 0.00 | 64 | 1018.6 |
| 20260509085544 | 61 | 138 | 2.0 | 4.0 | 0.00 | 0.00 | 0.00 | 64 | 1018.6 |
| 20260509085030 | 61 | 213 | 1.0 | 4.0 | 0.00 | 0.00 | 0.00 | 65 | 1018.6 |
| 20260509084544 | 60 | 119 | 1.0 | 4.0 | 0.00 | 0.00 | 0.00 | 67 | 1018.6 |
| 20260509084039 | 60 | 120 | 2.0 | 4.0 | 0.00 | 0.00 | 0.00 | 66 | 1018.6 |
| 20260509083618 | 60 | 89 | 2.0 | 6.0 | 0.00 | 0.00 | 0.00 | 68 | 1018.6 |
| 20260509083045 | 59 | 17 | 1.0 | 8.0 | 0.00 | 0.00 | 0.00 | 68 | 1018.5 |
| 20260509082544 | 59 | 37 | 2.0 | 4.0 | 0.00 | 0.00 | 0.00 | 70 | 1018.6 |
| 20260509082027 | 59 | 240 | 0.0 | 7.0 | 0.00 | 0.00 | 0.00 | 70 | 1018.5 |
| 20260509081559 | 59 | 31 | 5.0 | 7.0 | 0.00 | 0.00 | 0.00 | 71 | 1018.5 |
| 20260509081030 | 58 | 90 | 1.0 | 5.0 | 0.00 | 0.00 | 0.00 | 73 | 1018.5 |
| 20260509080604 | 58 | 318 | 1.0 | 4.0 | 0.00 | 0.00 | 0.00 | 74 | 1018.6 |
| 20260509080043 | 57 | 52 | 1.0 | 4.0 | 0.00 | 0.00 | 0.00 | 74 | 1018.6 |
| 20260509075537 | 57 | 355 | 2.0 | 6.0 | 0.00 | 0.00 | 0.00 | 75 | 1018.6 |
| 20260509075045 | 57 | 92 | 2.0 | 7.0 | 0.00 | 0.00 | 0.00 | 75 | 1018.6 |
| 20260509074543 | 57 | 83 | 2.0 | 7.0 | 0.00 | 0.00 | 0.00 | 77 | 1018.5 |
| 20260509074036 | 56 | 21 | 3.0 | 6.0 | 0.00 | 0.00 | 0.00 | 77 | 1018.6 |
| 20260509073549 | 56 | 211 | 2.0 | 4.0 | 0.00 | 0.00 | 0.00 | 77 | 1018.6 |
| 20260509073040 | 56 | 63 | 1.0 | 7.0 | 0.00 | 0.00 | 0.00 | 78 | 1018.6 |
| 20260509072611 | 56 | 104 | 2.0 | 7.0 | 0.00 | 0.00 | 0.00 | 79 | 1018.7 |
| 20260509072041 | 55 | 74 | 1.0 | 6.0 | 0.00 | 0.00 | 0.00 | 79 | 1018.6 |
| 20260509071544 | 55 | 97 | 2.0 | 6.0 | 0.00 | 0.00 | 0.00 | 80 | 1018.6 |
| 20260509071030 | 55 | 170 | 2.0 | 6.0 | 0.00 | 0.00 | 0.00 | 80 | 1018.7 |
| 20260509070607 | 54 | 24 | 1.0 | 4.0 | 0.00 | 0.00 | 0.00 | 81 | 1018.8 |
| 20260509070054 | 54 | 5 | 2.0 | 4.0 | 0.00 | 0.00 | 0.00 | 81 | 1018.8 |
| 20260509065553 | 54 | 76 | 1.0 | 3.0 | 0.00 | 0.00 | 0.00 | 83 | 1018.8 |
| 20260509065034 | 53 | 96 | 1.0 | 3.0 | 0.00 | 0.00 | 0.00 | 82 | 1018.7 |
| 20260509064539 | 53 | 83 | 2.0 | 5.0 | 0.00 | 0.00 | 0.00 | 83 | 1018.7 |
| 20260509064040 | 52 | 348 | 2.0 | 6.0 | 0.00 | 0.00 | 0.00 | 83 | 1018.7 |
| 20260509063540 | 52 | 32 | 2.0 | 6.0 | 0.00 | 0.00 | 0.00 | 84 | 1018.7 |
| 20260509063026 | 52 | 98 | 2.0 | 4.0 | 0.00 | 0.00 | 0.00 | 84 | 1018.7 |
| 20260509062530 | 51 | 67 | 1.0 | 4.0 | 0.00 | 0.00 | 0.00 | 85 | 1018.7 |
| 20260509062045 | 51 | 46 | 2.0 | 4.0 | 0.00 | 0.00 | 0.00 | 85 | 1018.7 |
| 20260509061540 | 51 | 67 | 2.0 | 3.0 | 0.00 | 0.00 | 0.00 | 85 | 1018.7 |
| 20260509061052 | 51 | 65 | 2.0 | 3.0 | 0.00 | 0.00 | 0.00 | 85 | 1018.7 |
| 20260509060550 | 50 | 67 | 1.0 | 5.0 | 0.00 | 0.00 | 0.00 | 86 | 1018.8 |
| 20260509060036 | 50 | 98 | 3.0 | 5.0 | 0.00 | 0.00 | 0.00 | 86 | 1018.7 |
| 20260509055528 | 50 | 53 | 2.0 | 5.0 | 0.00 | 0.00 | 0.00 | 86 | 1018.7 |
| 20260509055030 | 50 | 81 | 1.0 | 2.0 | 0.00 | 0.00 | 0.00 | 87 | 1018.7 |
| 20260509054604 | 50 | 74 | 1.0 | 3.0 | 0.00 | 0.00 | 0.00 | 87 | 1018.8 |
| 20260509054044 | 49 | 84 | 2.0 | 3.0 | 0.00 | 0.00 | 0.00 | 88 | 1018.7 |
| 20260509053528 | 49 | 36 | 1.0 | 5.0 | 0.00 | 0.00 | 0.00 | 88 | 1018.6 |
| 20260509053035 | 49 | 360 | 2.0 | 5.0 | 0.00 | 0.00 | 0.00 | 89 | 1018.6 |
| 20260509052543 | 49 | 46 | 2.0 | 5.0 | 0.00 | 0.00 | 0.00 | 89 | 1018.5 |
| 20260509052033 | 48 | 82 | 1.0 | 3.0 | 0.00 | 0.00 | 0.00 | 90 | 1018.5 |
| 20260509051543 | 48 | 121 | 1.0 | 3.0 | 0.00 | 0.00 | 0.00 | 91 | 1018.5 |
| 20260509051027 | 48 | 38 | 1.0 | 3.0 | 0.00 | 0.00 | 0.00 | 91 | 1018.5 |
| 20260509050540 | 47 | 67 | 1.0 | 2.0 | 0.00 | 0.00 | 0.00 | 91 | 1018.5 |
| 20260509050057 | 47 | 53 | 1.0 | 2.0 | 0.00 | 0.00 | 0.00 | 91 | 1018.5 |
| 20260509045544 | 47 | 88 | 0.0 | 3.0 | 0.00 | 0.00 | 0.00 | 91 | 1018.5 |
| 20260509045029 | 47 | 55 | 0.0 | 3.0 | 0.00 | 0.00 | 0.00 | 92 | 1018.4 |
| 20260509044534 | 47 | 38 | 0.0 | 1.0 | 0.00 | 0.00 | 0.00 | 91 | 1018.4 |
| 20260509044048 | 47 | 38 | 0.0 | 1.0 | 0.00 | 0.00 | 0.00 | 91 | 1018.3 |
| 20260509043529 | 47 | 38 | 0.0 | 1.0 | 0.00 | 0.00 | 0.00 | 91 | 1018.3 |
| 20260509043044 | 47 | 38 | 0.0 | 1.0 | 0.00 | 0.00 | 0.00 | 91 | 1018.3 |
| 20260509042550 | 47 | 38 | 0.0 | 1.0 | 0.00 | 0.00 | 0.00 | 90 | 1018.2 |
| 20260509042040 | 47 | 38 | 0.0 | 2.0 | 0.00 | 0.00 | 0.00 | 90 | 1018.2 |
| 20260509041545 | 47 | 43 | 0.0 | 2.0 | 0.00 | 0.00 | 0.00 | 90 | 1018.1 |
| 20260509041100 | 47 | 35 | 1.0 | 2.0 | 0.00 | 0.00 | 0.00 | 90 | 1018.1 |
| 20260509040542 | 47 | 35 | 1.0 | 2.0 | 0.00 | 0.00 | 0.00 | 90 | 1018.1 |
| 20260509040044 | 47 | 35 | 1.0 | 3.0 | 0.00 | 0.00 | 0.00 | 90 | 1018.1 |
| 20260509035547 | 47 | 42 | 1.0 | 3.0 | 0.00 | 0.00 | 0.00 | 90 | 1018.1 |
| 20260509035042 | 47 | 32 | 0.0 | 2.0 | 0.00 | 0.00 | 0.00 | 90 | 1018.1 |
| 20260509034559 | 47 | 18 | 1.0 | 2.0 | 0.00 | 0.00 | 0.00 | 90 | 1018.1 |
| 20260509034030 | 47 | 78 | 0.0 | 1.0 | 0.00 | 0.00 | 0.00 | 90 | 1018.2 |
| 20260509033608 | 47 | 78 | 0.0 | 1.0 | 0.00 | 0.00 | 0.00 | 90 | 1018.2 |
| 20260509033029 | 47 | 78 | 0.0 | 1.0 | 0.00 | 0.00 | 0.00 | 89 | 1018.2 |
| 20260509032548 | 47 | 78 | 0.0 | 1.0 | 0.00 | 0.00 | 0.00 | 89 | 1018.2 |
| 20260509032038 | 47 | 78 | 0.0 | 2.0 | 0.00 | 0.00 | 0.00 | 89 | 1018.2 |
| 20260509031539 | 48 | 78 | 0.0 | 2.0 | 0.00 | 0.00 | 0.00 | 89 | 1018.3 |
| 20260509031102 | 48 | 93 | 0.0 | 2.0 | 0.00 | 0.00 | 0.00 | 89 | 1018.3 |
| 20260509030559 | 48 | 93 | 0.0 | 3.0 | 0.00 | 0.00 | 0.00 | 89 | 1018.3 |
| 20260509030032 | 48 | 87 | 1.0 | 5.0 | 0.00 | 0.00 | 0.00 | 90 | 1018.3 |
| 20260509025539 | 48 | 95 | 2.0 | 6.0 | 0.00 | 0.00 | 0.00 | 90 | 1018.3 |
| 20260509025029 | 48 | 10 | 0.0 | 2.0 | 0.00 | 0.00 | 0.00 | 90 | 1018.3 |
| 20260509024530 | 47 | 99 | 0.0 | 3.0 | 0.00 | 0.00 | 0.00 | 90 | 1018.3 |
| 20260509024047 | 47 | 30 | 0.0 | 3.0 | 0.00 | 0.00 | 0.00 | 90 | 1018.3 |
| 20260509023539 | 47 | 30 | 1.0 | 3.0 | 0.00 | 0.00 | 0.00 | 91 | 1018.3 |
| 20260509023053 | 47 | 30 | 0.0 | 1.0 | 0.00 | 0.00 | 0.00 | 90 | 1018.3 |
| 20260509022539 | 47 | 30 | 0.0 | 2.0 | 0.00 | 0.00 | 0.00 | 90 | 1018.3 |
| 20260509022031 | 47 | 30 | 0.0 | 2.0 | 0.00 | 0.00 | 0.00 | 90 | 1018.4 |
| 20260509021615 | 47 | 30 | 0.0 | 1.0 | 0.00 | 0.00 | 0.00 | 90 | 1018.3 |
| 20260509021044 | 47 | 30 | 0.0 | 0.0 | 0.00 | 0.00 | 0.00 | 90 | 1018.3 |
| 20260509020557 | 47 | 30 | 0.0 | 0.0 | 0.00 | 0.00 | 0.00 | 90 | 1018.3 |
| 20260509020036 | 47 | 30 | 0.0 | 0.0 | 0.00 | 0.00 | 0.00 | 90 | 1018.2 |
| 20260509015545 | 47 | 30 | 0.0 | 2.0 | 0.00 | 0.00 | 0.00 | 89 | 1018.3 |
| 20260509015104 | 47 | 30 | 0.0 | 2.0 | 0.00 | 0.00 | 0.00 | 89 | 1018.3 |
| 20260509014559 | 47 | 30 | 1.0 | 2.0 | 0.00 | 0.00 | 0.00 | 89 | 1018.4 |
| 20260509014037 | 47 | 30 | 0.0 | 1.0 | 0.00 | 0.00 | 0.00 | 89 | 1018.4 |
| 20260509013533 | 47 | 30 | 0.0 | 1.0 | 0.00 | 0.00 | 0.00 | 88 | 1018.4 |
| 20260509013031 | 48 | 30 | 0.0 | 0.0 | 0.00 | 0.00 | 0.00 | 87 | 1018.4 |
| 20260509012544 | 48 | 30 | 0.0 | 0.0 | 0.00 | 0.00 | 0.00 | 87 | 1018.4 |
| 20260509012025 | 48 | 30 | 0.0 | 0.0 | 0.00 | 0.00 | 0.00 | 87 | 1018.4 |
| 20260509011554 | 48 | 30 | 0.0 | 1.0 | 0.00 | 0.00 | 0.00 | 86 | 1018.4 |
| 20260509011034 | 48 | 30 | 0.0 | 1.0 | 0.00 | 0.00 | 0.00 | 86 | 1018.5 |
| 20260509010544 | 48 | 30 | 0.0 | 0.0 | 0.00 | 0.00 | 0.00 | 86 | 1018.5 |
| 20260509010029 | 48 | 30 | 0.0 | 0.0 | 0.00 | 0.00 | 0.00 | 86 | 1018.5 |
| 20260509005544 | 48 | 30 | 0.0 | 0.0 | 0.00 | 0.00 | 0.00 | 86 | 1018.4 |
| 20260509005030 | 49 | 30 | 0.0 | 1.0 | 0.00 | 0.00 | 0.00 | 85 | 1018.4 |
| 20260509004535 | 49 | 30 | 0.0 | 1.0 | 0.00 | 0.00 | 0.00 | 85 | 1018.4 |
| 20260509004035 | 49 | 30 | 0.0 | 1.0 | 0.00 | 0.00 | 0.00 | 85 | 1018.3 |
| 20260509003558 | 49 | 30 | 0.0 | 0.0 | 0.00 | 0.00 | 0.00 | 85 | 1018.3 |
| 20260509003026 | 49 | 30 | 0.0 | 1.0 | 0.00 | 0.00 | 0.00 | 85 | 1018.3 |
| 20260509002609 | 49 | 30 | 0.0 | 1.0 | 0.00 | 0.00 | 0.00 | 85 | 1018.3 |
| 20260509002101 | 49 | 30 | 0.0 | 1.0 | 0.00 | 0.00 | 0.00 | 85 | 1018.3 |
| 20260509001539 | 49 | 30 | 0.0 | 1.0 | 0.00 | 0.00 | 0.00 | 86 | 1018.3 |
| 20260509001033 | 49 | 30 | 0.0 | 1.0 | 0.00 | 0.00 | 0.00 | 86 | 1018.3 |
| 20260509000600 | 49 | 30 | 0.0 | 1.0 | 0.00 | 0.00 | 0.00 | 87 | 1018.3 |
| 20260509000040 | 49 | 30 | 0.0 | 0.0 | 0.00 | 0.00 | 0.00 | 87 | 1018.3 |
| 20260508235533 | 49 | 30 | 0.0 | 0.0 | 0.00 | 0.00 | 0.00 | 88 | 1018.3 |
| 20260508235038 | 49 | 30 | 0.0 | 0.0 | 0.00 | 0.00 | 0.00 | 88 | 1018.3 |
| 20260508234530 | 49 | 30 | 0.0 | 0.0 | 0.00 | 0.00 | 0.00 | 89 | 1018.3 |
| 20260508234027 | 49 | 30 | 0.0 | 0.0 | 0.00 | 0.00 | 0.00 | 89 | 1018.4 |
| 20260508233556 | 49 | 30 | 0.0 | 1.0 | 0.00 | 0.00 | 0.00 | 89 | 1018.3 |
| 20260508233042 | 49 | 30 | 0.0 | 1.0 | 0.00 | 0.00 | 0.00 | 89 | 1018.3 |
| 20260508232544 | 49 | 30 | 0.0 | 1.0 | 0.00 | 0.00 | 0.00 | 89 | 1018.4 |
| 20260508232033 | 49 | 30 | 0.0 | 1.0 | 0.00 | 0.00 | 0.00 | 89 | 1018.3 |
| 20260508231538 | 49 | 30 | 0.0 | 0.0 | 0.00 | 0.00 | 0.00 | 89 | 1018.3 |
| 20260508231036 | 49 | 30 | 0.0 | 0.0 | 0.00 | 0.00 | 0.00 | 89 | 1018.3 |
| 20260508230535 | 49 | 30 | 0.0 | 0.0 | 0.00 | 0.00 | 0.00 | 89 | 1018.3 |
| 20260508230029 | 49 | 30 | 0.0 | 0.0 | 0.00 | 0.00 | 0.00 | 89 | 1018.2 |
| 20260508225544 | 49 | 30 | 0.0 | 0.0 | 0.00 | 0.00 | 0.00 | 88 | 1018.1 |
| 20260508225040 | 49 | 30 | 0.0 | 0.0 | 0.00 | 0.00 | 0.00 | 88 | 1018.2 |
| 20260508224610 | 50 | 30 | 0.0 | 1.0 | 0.00 | 0.00 | 0.00 | 88 | 1018.3 |
| 20260508224043 | 50 | 30 | 0.0 | 1.0 | 0.00 | 0.00 | 0.00 | 87 | 1018.3 |
| 20260508223531 | 50 | 30 | 0.0 | 0.0 | 0.00 | 0.00 | 0.00 | 86 | 1018.4 |
| 20260508223045 | 50 | 30 | 0.0 | 0.0 | 0.00 | 0.00 | 0.00 | 86 | 1018.3 |
| 20260508222535 | 50 | 30 | 0.0 | 0.0 | 0.00 | 0.00 | 0.00 | 85 | 1018.4 |
| 20260508222027 | 50 | 30 | 0.0 | 0.0 | 0.00 | 0.00 | 0.00 | 85 | 1018.3 |
| 20260508221545 | 50 | 30 | 0.0 | 0.0 | 0.00 | 0.00 | 0.00 | 85 | 1018.3 |
| 20260508221045 | 50 | 30 | 0.0 | 0.0 | 0.00 | 0.00 | 0.00 | 85 | 1018.3 |
| 20260508220547 | 51 | 30 | 0.0 | 0.0 | 0.00 | 0.00 | 0.00 | 85 | 1018.3 |
| 20260508220029 | 51 | 30 | 0.0 | 0.0 | 0.00 | 0.00 | 0.00 | 84 | 1018.3 |
| 20260508215540 | 51 | 30 | 0.0 | 0.0 | 0.00 | 0.00 | 0.00 | 83 | 1018.3 |